Welcome to the New NWS' Forecast!
Most changes are behind the scenes, but click here for differences you might notice.
Latest weather observations around

Fayetteville, Drake Field (KFYV)

Using English Units (Switch to International System of Units)
Date/ Time (CST) Wind (mph) Vis. (mi) Weather Sky Cond. Temp (°F) Rel. Humidity Wind Chill (°F) Heat Index (°F) Pressure Precip. (in)
Air Dwpt 6 hour Altimeter (inHg) Sea level (inHg) 1 hr 3 hr 6 hr
Max Min
Jan 21 09:53 S 17 10 Mostly Clear FEW035 65 57     76%     29.91 29.88      
Jan 21 08:53 S 17 10 Clear CLR 61 56     83%     29.9 29.89      
Jan 21 07:53 S 7 10 Clear CLR 57 55     93%     29.9 29.88      
Jan 21 06:53 S 13 10 Clear CLR 57 54     89%     29.91 29.89      
Jan 21 05:53 S 14 10 Clear CLR 58 54     87%     29.9 29.89      
Jan 21 04:53 S 16 10 Clear CLR 57 54     89%     29.9 29.88      
Jan 21 03:53 S 11 10 Clear CLR 57 54     89%     29.9 29.88      
Jan 21 02:53 S 10 10 Mostly Clear FEW021 57 54     89%     29.9 29.88      
Jan 21 01:53 SSW 16 10 Mostly Clear FEW023 57 54     89%     29.9 29.88      
Jan 21 00:53 S 16 10 Clear CLR 56 53     90%     29.9 29.88      
Jan 20 23:53 S 10 10 Clear CLR 55 52     89%     29.9 29.88      
Jan 20 22:53 S 13 10 Mostly Clear FEW027 54 52     93%     29.91 29.9      
Jan 20 22:45 S 11 10 Partly Cloudy SCT027 54 52     93%     29.91        
Jan 20 22:00 SSW 11 10 Mostly Cloudy BKN026 54 52     93%     29.91        
Jan 20 21:53 S 10 10 Partly Cloudy SCT018 54 52     93%     29.92 29.91      
Jan 20 20:53 7 10 Partly Cloudy SCT018 54 51     90%     29.92 29.91      
Jan 20 20:38 S 6 10 Mostly Cloudy BKN018 54 51     90%     29.92        
Jan 20 19:53 S 10 10 Partly Cloudy SCT018 54 51     90%     29.92 29.91      
Jan 20 18:53 SSE 8 10 Clear CLR 54 50     86%     29.91 29.91      
Jan 20 17:53 SSE 15 10 Clear CLR 56 49     77%     29.91 29.9      
Jan 20 16:53 SSE 13 10 Clear CLR 59 50     72%     29.91 29.9      
Jan 20 15:53 SSE 14 10 Clear CLR 63 48     58%     29.89 29.88      
Jan 20 14:53 S 17 10 Clear CLR 63 48     58%     29.89 29.88      
Jan 20 13:53 S 22 10 Mostly Clear and Windy FEW028 61 48     62%     29.91 29.9      
Jan 20 12:53 S 22 10 Partly Cloudy and Windy SCT025 59 47     64%     29.94 29.93      
Jan 20 11:53 SSW 17 10 Mostly Cloudy BKN024 58 47     67%     29.98 29.97      
Jan 20 10:53 S 14 10 Cloudy OVC021 56 47     72%     30.01 30      
Jan 20 09:53 S 21 10 Mostly Cloudy and Windy BKN022 54 47     77%     30 30      
Jan 20 08:53 S 9 10 Cloudy OVC019 51 47     86%     29.99 29.99      
Jan 20 07:53 S 17 10 Cloudy OVC019 49 44     83% 43   29.98 29.98      
Jan 20 06:53 S 17 10 Cloudy OVC016 49 43     80% 43   29.97 29.97      
Jan 20 05:53 S 15 10 Cloudy OVC019 49 42     77% 43   29.98 29.98      
Jan 20 04:53 S 14 10 Cloudy OVC015 49 42     77% 44   29.98 29.98      
Jan 20 03:53 S 8 10 Cloudy OVC020 48 40     73% 44   29.99 29.99      
Jan 20 02:53 S 13 10 Mostly Cloudy BKN024 BKN039 46 38     73% 40   30.01 30      
Jan 20 01:53 S 13 10 Mostly Cloudy BKN036 46 37     71% 40   30 30      
Jan 20 00:53 S 9 10 Cloudy OVC034 45 37     74% 40   30.01 30.01      
Jan 20 00:11 SSW 9 10 Cloudy OVC031 46 37     71% 41   30.02        
Jan 19 23:53 S 9 10 Cloudy OVC029 46 37     71% 41   30.02 30.02      
Jan 19 22:53 S 13 10 Cloudy OVC023 46 37     71% 40   30.02 30.02      
Jan 19 21:53 S 11 10 Cloudy OVC020 46 39     76% 41   30.01 30.01      
Jan 19 21:43 S 11 10 Mostly Cloudy BKN020 46 38     73% 41   30.01        
Jan 19 20:53 SSW 14 10 Clear CLR 45 36     71% 39   29.99 30      
Jan 19 19:53 S 13   Clear   45 34     65% 39   29.98 30      
Jan 19 18:53 SSW 9 10 Clear CLR 46 31     55% 41   29.97 29.98      
Jan 19 17:53 S 6 10 Clear CLR 44 29     55% 41   29.97 29.99      
Jan 19 16:53 S 14 10 Clear CLR 49 30     48% 44   29.98 29.99      
Jan 19 15:53 S 13 10 Clear CLR 52 30     43%     29.99 30      
Jan 19 14:53 SSW 16 10 Clear CLR 53 29     39%     30 30      
Jan 19 13:53 SSW 17 10 Clear CLR 52 29     41%     30.01 30.02      
Jan 19 12:53 S 18 10 Clear CLR 50 28     42% 44   30.04 30.05      
Jan 19 11:53 SSW 11 10 Clear CLR 48 26     42% 43   30.09 30.11      
Jan 19 10:53 SSW 13 10 Clear CLR 46 26     45% 40   30.13 30.14      
Jan 19 08:53 SSW 13 10 Clear CLR 37 19     48% 29   30.13 30.14      
Jan 19 07:53 SSW 6 10 Clear CLR 32 15     49% 26   30.13 30.16      
Jan 19 06:53 S 7 10 Clear CLR 30 13     48% 23   30.14 30.16      
Jan 19 05:53 SSW 7 10 Clear CLR 30 11     44% 23   30.14 30.16      
Jan 19 04:53 SSW 9 10 Clear CLR 31 11     43% 23   30.15 30.17      
Jan 19 03:53 SSW 9 10 Clear CLR 32 11     41% 24   30.15 30.17      
Jan 19 02:53 SSW 11 10 Clear CLR 32 10     39% 23   30.18 30.19      
Jan 19 01:53 SSW 11 10 Clear CLR 32 9     38% 23   30.19 30.21      
Jan 19 00:53 SSW 10 10 Clear CLR 32 10     39% 24   30.21 30.23      
Jan 18 23:53 SW 11 10 Clear CLR 32 9     38% 23   30.23 30.25      
Jan 18 22:53 SSW 11 10 Clear CLR 33 9     36% 24   30.24 30.26      
Jan 18 21:53 Calm 10 Clear CLR 31 7     36%     30.25 30.27      
Jan 18 20:53 SSW 6 10 Clear CLR 34 6     30% 29   30.23 30.26      
Jan 18 19:53 WSW 7 10 Clear CLR 33 6     32% 27   30.24 30.27      
Jan 18 18:53 SSW 7 10 Clear CLR 33 7     33% 27   30.25 30.29      
Jan 18 17:53 SSW 11 10 Clear CLR 35 8     32% 27   30.23 30.27      
Jan 18 16:53 S 10 10 Clear CLR 38 10     31% 31   30.25 30.29      
Jan 18 15:53 S 16 10 Clear CLR 42 9     25% 34   30.26 30.29      
Jan 18 14:53 SSW 11 10 Clear CLR 43 8     23% 37   30.29 30.32      
Jan 18 13:53 S 13 10 Clear CLR 41 9     26% 34   30.31 30.35      
Jan 18 12:53 S 13 10 Clear CLR 40 9     27% 32   30.34 30.38      
Jan 18 11:53 SW 11 10 Clear CLR 38 7     27% 30   30.4 30.44      
Jan 18 10:53 SW 15 10 Clear CLR 34 6     30% 24   30.43 30.47      
Jun 11 22:53 SSE 11 10 Clear CLR 75 63     66%   75 29.97 29.93      
Jun 10 17:53 S 16 10 Clear   80 66     62%   82 29.89 29.86      
Jun 10 00:53 Calm 10 Clear CLR 60 60     100%     29.93 29.9      
Jun 08 12:53 Calm 10 Clear CLR 77 52     42%   76 30.05 30.02      
Jun 07 20:53 Calm 10 Clear CLR 64 57     78%     30.02 29.99      
Jun 06 04:53 Calm 0.25 Fog VV002 62 62     100%     29.9 29.86      
Jun 06 02:53 Calm 0.5 Fog VV002 63 63     100%     29.88 29.85      
Jun 05 18:53 E 3 10 Clear CLR 79 71     77%   82 29.82 29.78     1
Jun 05 16:53 5 10 Mostly Clear FEW029 80 71     74%   84 29.8 29.76      
Notice The following observation data may not be complete
Jun 05 14:21   10 Mostly Cloudy SCT016 SCT075 BKN110          %         1    
Jun 05 14:13 E 5 4 Thunderstorms and Rain and Fog/Mist BKN020 BKN075 OVC110 70 70     100%     29.83   1    
Notice The following observation data may not be complete
Jun 05 14:10 SE 6 1 Thunderstorms and Rain and Fog/Mist BKN020 BKN075 OVC120   69      %     29.83   1